Overview Statistics Trail Chart Weather Telemetry Raw packets
 

This is the latest recevied weather packets stored in our database for station/object IU5GBO-13. If no packets are shown the sender has not sent any weather packets the latest 10 day(s).

<< 1 2 3 4 5 6 >>
Time Temp. Humidity Pressure Rain* Wind** Luminosity Snow
1788540819 29.44° C 59% 1018.6 hPa - - - -
1788540219 29.44° C 59% 1018.6 hPa - - - -
1788539618 30° C 57% 1018.7 hPa - - - -
1788539019 30° C 58% 1018.7 hPa - - - -
1788538419 30.56° C 56% 1018.8 hPa - - - -
1788537819 30.56° C 53% 1018.9 hPa - - - -
1788537218 31.11° C 50% 1018.7 hPa - - - -
1788536619 31.67° C 47% 1018.8 hPa - - - -
1788536019 31.67° C 46% 1018.8 hPa - - - -
1788535419 31.67° C 46% 1018.9 hPa - - - -
1788534819 31.67° C 46% 1018.8 hPa - - - -
1788534219 31.67° C 43% 1018.8 hPa - - - -
1788533619 32.22° C 43% 1018.9 hPa - - - -
1788533019 32.22° C 44% 1018.8 hPa - - - -
1788532418 32.22° C 43% 1019 hPa - - - -
1788531818 32.22° C 42% 1018.9 hPa - - - -
1788531219 32.22° C 43% 1019 hPa - - - -
1788530644 32.78° C 45% 1019 hPa - - - -
1788530019 32.78° C 45% 1018.9 hPa - - - -
1788529419 32.78° C 44% 1018.9 hPa - - - -
1788528818 33.33° C 44% 1018.9 hPa - - - -
1788528219 32.78° C 45% 1019 hPa - - - -
1788527619 32.78° C 45% 1019.1 hPa - - - -
1788527018 32.78° C 45% 1019.2 hPa - - - -
1788526419 32.78° C 44% 1019.3 hPa - - - -

* Rain since midnight (hover to see other rain measurements)
** Current wind speed in m/s (hover to see current wind gust speed)